Wind_Speed
14 19 34 34 21 20 30 35 33 25 22 30 35 34 31 30 28 24 23 25 25 23 23 24 22 20 19 20 22 23 25 29 30 32 33 34 37 38 38 38 38 38 38 38 38 38 38 37 37 37 36 36 35 33 31 30 29 28 26 24 23 21 20 20 21 22 23 22 21 19 19 19 18 17 18 19 18 18 19 20 19 18 18 18 19 21 22
14 17 34 36 21 20 30 35 31 23 22 30 34 32 30 29 28 25 23 25 25 22 24 24 21 19 18 19 22 23 26 30 33 34 34 35 36 37 37 36 37 38 38 38 39 39 39 39 39 38 37 36 35 33 32 31 30 28 27 25 23 22 21 22 23 24 23 22 21 20 20 20 19 18 18 19 19 19 20 20 20 19 19 19 20 22 22
15 18 32 35 24 21 28 33 29 22 23 30 34 31 29 29 28 27 25 24 23 24 25 24 22 20 19 19 21 24 29 33 34 35 35 36 36 35 35 35 36 38 39 40 40 41 41 41 39 38 37 36 36 34 33 31 29 29 28 26 24 23 23 24 25 24 23 22 21 21 21 20 19 19 19 19 20 20 20 20 20 20 19 20 21 23 22
18 21 30 32 25 22 27 31 28 21 21 30 33 30 28 28 27 27 26 23 22 24 25 25 24 22 20 20 23 26 30 32 33 33 33 34 35 34 34 34 35 37 38 40 42 43 43 41 40 40 38 37 36 35 33 31 30 30 29 27 26 25 25 26 26 25 24 23 23 22 22 21 20 20 20 20 21 21 21 20 21 21 20 20 22 23 23
18 21 28 29 24 22 28 32 29 20 18 27 32 28 25 26 25 26 26 23 22 25 26 26 26 24 23 23 24 26 28 29 30 31 30 31 33 34 35 35 36 37 38 41 42 43 43 41 41 40 39 38 37 36 34 33 32 31 30 28 27 27 27 28 27 26 25 24 24 24 23 21 21 21 21 21 22 22 21 21 21 21 20 21 23 24 24
17 20 26 28 23 23 28 32 28 19 16 24 30 27 24 23 24 25 26 23 23 25 26 27 27 26 26 26 26 26 27 28 29 31 31 31 32 33 35 36 37 38 39 40 41 41 42 41 40 40 39 39 38 37 36 34 33 32 31 29 28 28 29 28 27 27 26 26 26 25 23 22 22 22 22 22 22 22 21 21 21 21 21 22 23 24 25
17 20 25 25 22 22 28 32 27 19 16 20 25 27 25 23 22 23 24 24 23 23 25 27 27 25 25 27 27 27 26 26 28 31 32 32 32 33 34 36 37 38 39 40 41 41 41 41 40 40 40 39 39 38 35 33 32 30 29 28 28 29 29 28 27 27 27 27 27 26 24 23 22 23 23 23 23 22 21 21 21 21 21 22 23 24 25
18 21 23 22 21 22 28 32 28 20 16 15 19 23 23 22 21 20 22 25 23 22 24 26 26 24 22 23 25 24 24 26 27 29 32 33 33 32 33 34 36 36 37 38 39 40 41 40 40 40 40 40 39 36 33 30 27 26 27 27 28 28 28 28 28 28 28 29 28 26 24 23 23 23 24 24 23 22 21 21 22 22 22 23 24 25 25
17 21 21 20 21 22 28 32 28 23 19 15 16 18 19 21 22 20 22 26 25 23 24 25 25 24 22 22 22 22 24 26 27 27 30 33 34 34 33 33 34 34 34 35 36 36 37 38 39 40 40 40 37 34 31 28 26 26 27 28 28 28 29 29 28 29 29 29 27 26 25 24 23 23 24 24 23 22 21 22 23 23 23 24 25 25 25
16 20 21 20 22 25 29 30 27 23 22 19 17 17 19 21 23 21 21 24 26 26 26 26 27 27 25 24 24 23 25 28 27 24 25 27 31 34 34 34 34 34 34 34 35 36 36 37 37 37 37 36 34 32 30 29 29 29 30 30 30 30 30 30 29 29 29 29 28 26 25 24 24 24 25 24 23 22 21 22 23 24 24 25 26 26 26
16 21 20 20 26 29 26 24 24 24 23 22 20 19 19 20 21 22 22 23 26 28 28 29 29 27 27 28 26 26 28 30 28 25 23 23 25 27 29 31 31 31 31 32 33 33 33 33 32 32 33 33 32 31 31 31 31 31 31 32 32 32 31 29 30 30 31 30 28 27 27 26 26 25 25 25 24 22 22 23 24 25 25 26 26 26 26
18 21 19 19 28 30 21 17 24 27 23 22 21 18 16 15 16 20 21 22 27 30 31 32 27 23 28 30 28 30 34 32 28 26 25 24 24 24 25 26 26 27 28 29 31 31 31 30 30 31 32 32 32 32 32 32 31 31 31 32 32 31 29 28 30 32 32 30 29 29 29 29 27 26 26 25 25 24 23 23 25 26 26 27 26 26 25
19 21 19 18 25 26 19 18 26 27 22 20 19 16 14 13 14 16 17 18 22 25 29 32 24 20 30 34 30 32 34 30 26 25 24 24 25 24 25 25 25 25 26 28 30 31 31 31 31 32 33 33 33 33 32 31 31 30 30 31 31 30 28 29 31 32 31 31 31 32 32 30 28 28 27 26 26 25 24 24 26 27 28 28 27 25 24
20 21 19 18 20 21 20 22 25 24 20 18 16 12 11 13 14 14 15 16 15 17 23 26 19 17 26 29 27 27 27 24 24 24 23 22 22 22 23 23 23 24 24 26 27 29 30 32 33 33 33 32 32 32 32 31 31 30 29 29 29 29 29 30 32 32 32 33 33 33 33 31 29 28 28 27 27 26 26 26 27 29 29 28 27 25 24
20 20 18 18 19 20 21 21 22 23 20 16 15 11 10 13 13 11 11 14 15 16 17 15 12 13 18 20 20 21 20 20 22 23 22 21 20 19 20 20 21 22 23 23 24 26 28 31 32 31 31 31 31 31 30 29 29 29 29 28 27 27 29 31 31 32 33 34 35 35 34 31 30 30 30 29 29 29 28 28 29 30 30 29 27 25 24
20 19 18 18 18 19 20 17 19 23 19 13 13 12 10 11 10 7 8 12 14 15 10 6 7 10 12 14 15 15 15 16 18 20 21 21 19 19 19 19 20 21 20 20 21 24 26 27 28 28 28 28 29 30 30 29 28 27 27 26 25 26 30 32 33 34 35 36 36 35 33 32 31 32 32 31 31 31 30 30 31 31 31 29 27 26 25
19 18 18 19 19 20 20 15 14 19 17 11 13 13 8 7 6 6 8 9 8 7 4 5 6 7 8 10 12 12 12 14 16 19 21 22 21 21 20 20 20 19 18 18 19 21 23 24 26 27 27 25 25 27 28 28 26 24 23 23 24 28 32 34 34 35 36 36 36 35 34 34 34 34 34 33 33 33 32 31 31 32 31 30 28 27 26
20 19 19 21 20 20 20 15 12 16 16 11 12 12 7 5 5 5 6 8 7 6 6 6 6 5 5 6 9 10 12 14 15 17 19 19 19 19 19 20 21 20 18 18 18 19 20 21 23 26 26 24 23 24 25 24 23 23 23 23 25 28 32 33 34 35 36 36 36 36 36 36 36 36 35 33 33 33 33 32 31 31 31 31 30 29 28
17 17 19 23 23 22 20 16 13 15 16 12 11 11 7 5 6 6 6 7 7 6 6 5 3 2 3 5 7 10 12 14 15 17 19 18 16 14 16 19 21 21 20 18 17 17 18 19 20 22 23 22 22 24 25 24 22 22 23 24 25 27 29 30 32 34 36 36 37 37 36 36 37 36 34 32 32 32 32 31 30 31 32 32 32 31 30
15 15 17 20 22 22 22 18 14 13 13 12 12 11 7 5 7 7 7 8 9 9 8 6 4 4 5 5 6 8 10 12 13 15 18 19 17 13 13 15 17 18 17 15 14 14 15 16 17 18 20 20 21 23 25 23 21 20 21 23 25 26 27 27 29 31 33 34 36 36 34 34 36 35 32 31 30 30 30 30 30 31 32 33 33 33 32
15 15 16 17 19 21 23 21 16 13 13 12 13 12 10 9 10 10 9 10 11 12 10 6 4 6 8 8 7 5 5 8 12 12 13 17 18 16 13 13 13 12 10 10 10 11 13 14 15 16 17 18 19 21 22 22 21 20 20 22 23 23 24 24 26 27 29 33 35 34 32 32 33 33 31 30 29 29 30 30 31 32 34 35 36 35 34
16 16 16 16 17 20 21 20 17 15 14 14 14 13 11 12 13 12 12 12 12 12 11 7 3 2 4 7 9 7 4 3 6 10 12 15 17 16 13 13 13 11 8 9 11 13 14 15 16 16 16 17 17 17 18 18 19 19 20 20 19 19 20 21 21 21 25 31 35 33 30 30 31 30 30 29 30 30 31 31 31 33 35 37 38 37 35
15 17 17 17 18 19 18 16 16 15 15 15 15 13 11 13 14 12 10 12 14 14 12 10 7 3 0 2 5 8 8 6 5 6 8 11 14 16 15 14 13 11 9 10 12 15 17 17 17 17 17 17 16 16 15 16 16 17 18 17 16 16 17 17 17 16 18 25 31 31 27 27 29 30 29 29 30 30 31 31 32 34 36 38 38 38 37
14 15 17 17 19 19 17 14 13 13 14 15 14 14 14 14 15 14 11 9 10 11 10 10 11 10 8 5 3 5 8 8 6 7 7 8 9 11 12 12 11 10 10 11 12 14 15 16 17 17 17 17 16 16 16 16 16 17 17 17 17 17 17 18 18 17 16 18 23 24 24 25 28 30 29 27 26 26 28 30 32 34 36 38 39 39 40
15 14 13 14 16 17 16 14 13 13 15 15 15 17 18 16 15 17 16 12 9 9 8 8 10 12 11 9 6 4 4 6 6 6 6 7 8 9 10 10 10 10 11 12 12 13 14 14 15 15 15 16 16 17 17 18 18 18 18 18 19 19 18 18 19 18 18 18 19 20 20 23 27 30 30 27 25 25 27 30 32 34 36 38 39 40 41
14 13 11 12 15 17 16 15 14 14 15 17 17 19 19 17 16 18 19 17 15 13 11 10 11 14 15 13 8 4 2 2 3 4 5 7 8 9 9 9 9 9 10 11 11 12 13 13 14 14 15 15 16 16 17 17 17 18 18 19 19 19 19 19 19 19 20 21 21 20 21 23 28 32 34 33 31 30 31 33 35 36 37 38 40 41 42
13 12 11 11 13 15 16 16 15 14 15 17 19 21 19 18 17 16 16 18 18 17 14 12 12 14 18 18 15 10 5 3 3 2 3 5 6 8 8 8 7 8 8 9 10 10 11 12 12 13 13 14 15 15 16 16 16 17 17 18 18 19 19 20 20 20 21 21 21 22 23 27 31 36 38 38 37 36 37 38 39 39 40 40 41 42 43
12 11 10 10 9 11 13 14 14 14 14 15 18 20 20 19 18 16 15 16 16 16 15 14 12 13 16 17 16 15 12 9 7 4 3 3 5 6 6 6 6 6 7 7 8 9 10 11 11 12 12 13 13 14 14 15 16 17 17 17 18 18 19 20 20 21 21 21 22 22 24 27 32 36 38 40 40 40 41 41 41 42 42 42 42 43 44
11 11 11 10 9 9 10 10 11 13 14 14 14 15 16 16 16 17 17 16 16 16 15 12 10 10 12 12 11 12 12 11 9 7 6 5 5 6 7 7 7 8 8 8 9 10 10 10 11 11 12 13 13 14 14 15 16 17 18 18 19 20 21 21 22 23 23 24 25 25 26 28 31 34 37 39 40 40 41 41 41 42 42 43 43 44 44
11 11 10 9 8 7 6 7 8 10 12 14 15 15 14 14 14 14 15 16 16 16 16 14 13 13 13 12 12 11 12 12 11 9 8 7 6 6 7 8 9 11 11 11 12 12 12 12 13 13 13 14 14 14 15 16 17 17 18 19 20 21 22 22 23 24 25 26 27 28 29 31 32 34 36 37 38 39 40 40 40 41 41 42 43 43 44
10 11 11 9 7 5 5 5 6 7 8 11 13 14 15 15 14 13 13 13 14 14 15 15 16 16 16 15 15 14 15 15 15 13 11 10 8 7 7 8 10 11 12 13 14 14 14 14 15 15 15 15 16 16 16 16 17 17 17 18 19 20 21 22 23 24 25 26 27 28 30 31 32 34 35 36 37 38 39 39 40 40 41 42 42 43 43
9 11 12 11 8 7 7 7 6 6 6 7 9 11 13 14 15 14 14 13 13 14 15 15 15 15 16 16 16 16 17 18 19 19 18 16 14 13 12 11 12 12 13 14 14 15 15 16 16 16 16 16 16 16 16 16 16 17 17 18 18 19 20 21 22 23 25 26 27 28 29 30 32 33 34 35 37 38 38 39 39 40 40 41 41 41 41
9 10 12 12 11 10 9 8 6 5 5 5 6 8 10 11 12 13 13 13 14 14 15 15 15 15 16 17 17 18 18 19 20 20 20 20 20 19 17 16 16 16 15 15 15 15 15 16 16 16 16 15 15 16 16 16 17 17 18 18 19 20 20 21 22 23 24 25 26 26 27 28 29 30 31 32 33 34 35 36 37 37 38 38 38 38 39
12 11 12 12 12 11 9 8 7 6 5 5 5 6 7 9 9 10 11 12 12 13 13 13 14 14 15 16 16 17 18 19 19 19 19 20 20 20 20 19 19 18 18 17 16 16 16 15 15 15 15 15 15 16 16 16 17 17 18 18 19 19 20 21 21 22 23 24 24 25 26 26 27 28 29 30 31 31 32 33 34 35 35 36 36 36 36
14 14 14 14 14 13 12 11 10 9 8 7 7 7 7 7 8 9 10 10 10 10 11 11 12 12 13 13 13 13 14 15 16 17 17 18 18 19 19 19 19 18 17 16 16 15 15 15 14 14 14 14 15 15 16 16 17 17 18 18 19 19 20 21 22 22 23 24 24 25 26 27 28 28 29 30 31 31 32 33 33 34 34 35 35 35 35
13 14 15 15 15 15 14 14 12 11 10 9 9 9 9 9 9 9 9 9 9 9 9 10 10 11 11 11 11 10 11 12 14 14 15 16 16 16 17 17 16 16 15 15 15 15 15 14 14 14 15 15 15 16 16 17 18 18 19 19 20 21 22 22 23 24 25 25 26 27 27 28 29 29 30 31 31 32 32 33 33 34 34 35 35 35 34
13 14 15 15 15 14 14 14 13 12 11 11 11 11 11 11 11 11 11 11 11 11 11 11 11 10 10 10 10 10 11 12 13 13 13 14 14 14 14 15 15 14 14 14 14 15 15 15 15 15 16 16 17 17 18 19 19 20 21 21 22 23 24 24 25 26 26 27 27 28 28 29 29 29 30 30 31 31 32 32 32 33 33 33 33 33 33
13 13 14 15 15 14 13 12 12 12 12 12 12 12 12 12 12 12 13 13 13 13 13 13 13 13 12 13 12 12 13 13 13 13 13 14 14 15 15 14 14 14 14 15 15 15 15 16 16 17 17 18 18 19 20 20 21 21 22 22 23 23 24 25 25 26 26 26 27 27 27 27 28 28 28 28 29 29 29 30 30 30 31 31 31 31 32
13 13 13 14 15 15 14 13 12 11 11 11 12 12 12 12 13 13 12 12 13 14 14 14 14 15 15 15 15 14 14 15 15 14 14 15 15 15 15 15 15 15 16 16 16 16 16 17 17 17 18 18 18 18 19 19 20 20 20 21 21 22 23 23 24 24 25 25 26 26 27 27 27 28 28 28 28 28 29 29 29 29 29 29 29 30 31
13 13 13 13 14 15 16 15 14 12 12 12 12 12 12 12 12 12 13 13 13 14 14 14 15 15 16 16 16 16 15 16 16 16 16 15 15 15 15 15 15 15 16 16 16 16 16 16 16 16 16 16 17 17 17 17 18 18 19 19 20 21 22 22 23 24 24 25 26 26 27 27 28 28 29 29 29 30 30 30 29 29 29 29 29 28 29
14 14 14 14 14 14 15 15 15 14 13 13 13 12 12 12 12 13 13 13 13 14 14 15 15 16 16 16 15 15 15 16 16 16 16 16 16 15 15 15 14 14 14 14 14 14 14 14 14 15 15 15 16 16 17 17 18 19 20 20 21 22 23 24 24 25 25 26 27 27 28 28 29 29 29 30 30 30 31 31 30 30 30 29 29 28 27
13 15 15 15 14 15 15 15 15 14 14 14 14 13 13 13 13 14 14 14 13 13 14 14 15 15 15 15 14 14 14 14 15 14 14 15 15 14 14 14 13 13 13 13 13 13 13 13 13 14 15 16 17 18 19 20 21 22 23 23 24 25 26 27 27 28 28 28 29 29 30 30 30 30 31 31 31 31 31 31 31 31 30 29 28 27 26
13 14 15 15 15 16 15 15 15 14 14 14 15 14 14 14 14 14 14 14 13 13 13 13 14 14 14 14 13 13 13 13 13 13 13 13 13 13 13 12 12 12 12 12 12 12 13 14 15 16 17 18 20 21 22 22 23 24 25 26 26 27 27 28 28 29 29 29 29 29 30 30 30 30 30 30 30 30 31 30 30 30 29 28 27 26 23
13 13 14 15 16 16 16 16 15 15 15 15 15 15 15 15 15 15 15 15 13 12 12 13 13 13 13 13 13 13 13 13 13 13 12 12 12 12 12 11 11 11 12 12 13 14 15 16 17 18 18 19 21 22 23 23 24 25 25 26 26 27 27 27 28 28 28 28 28 28 28 28 28 28 28 27 27 28 28 27 27 26 26 25 25 25 23
13 13 14 14 15 16 17 16 15 15 15 16 16 16 16 16 16 16 16 16 14 13 13 13 13 13 13 13 13 13 13 13 12 12 12 12 11 11 11 12 12 12 13 13 14 14 15 16 17 18 18 19 20 21 22 23 23 24 25 25 25 26 26 27 27 28 28 27 27 27 27 26 26 25 25 24 24 23 23 22 22 22 22 22 23 23 24
14 13 14 15 16 16 17 16 16 16 16 16 16 16 16 16 16 16 17 17 16 15 14 14 14 14 14 14 13 13 13 13 12 12 12 12 12 12 12 12 12 12 12 13 13 13 14 15 16 16 17 18 19 20 21 22 23 24 24 25 25 25 25 26 27 28 28 28 28 27 26 25 25 24 22 22 22 22 21 21 21 21 22 22 23 24 24
14 14 14 15 16 17 17 17 17 17 17 17 17 17 17 16 16 17 17 17 17 16 15 15 15 14 14 14 14 13 13 13 13 12 12 12 12 12 11 11 11 11 11 11 11 12 13 14 15 16 16 18 19 20 20 21 22 23 24 25 25 25 25 26 27 28 28 28 28 28 27 26 26 25 23 22 23 23 23 23 24 25 25 25 25 24 23
14 14 15 16 17 17 17 17 17 17 17 17 17 17 17 17 17 17 17 17 17 17 16 16 15 15 15 14 14 14 13 13 13 12 12 11 11 11 10 10 10 10 10 11 11 12 12 13 14 15 17 18 19 20 21 22 23 24 24 25 25 26 26 26 27 28 29 29 28 28 28 28 28 28 27 26 26 26 26 27 28 29 28 25 23 21 21
14 14 14 16 17 17 18 18 18 18 18 18 18 18 17 17 17 17 17 17 17 17 17 17 16 16 15 15 14 14 13 13 12 12 11 11 10 10 10 10 10 10 11 11 12 12 13 13 14 15 17 18 19 20 21 22 23 24 25 26 26 27 27 27 27 28 29 30 29 29 29 29 29 29 29 28 28 28 28 29 30 31 29 25 21 19 20
15 15 15 16 17 17 18 18 18 18 18 18 18 18 17 17 17 17 17 17 17 17 17 17 17 16 16 15 15 14 13 12 12 11 11 11 11 11 11 10 11 11 11 12 12 13 14 15 16 16 17 18 20 21 22 23 24 25 26 26 27 27 28 28 28 28 29 30 30 30 31 30 30 30 30 29 29 29 29 28 29 30 29 27 24 22 22
16 16 16 16 17 17 17 18 18 18 18 19 19 18 18 17 17 17 17 18 18 18 18 18 17 17 16 16 15 14 13 12 12 12 12 12 12 12 12 12 12 12 13 13 14 15 16 16 17 18 18 19 20 21 21 23 24 25 26 27 27 28 28 29 29 29 29 29 30 30 31 31 31 31 31 30 30 29 28 28 28 28 28 26 25 24 23
15 16 16 16 17 17 18 18 18 18 18 18 19 19 19 18 18 18 18 18 18 18 18 18 18 17 17 16 15 14 13 13 13 13 13 13 13 13 13 13 14 14 15 15 16 17 18 18 19 20 20 21 21 21 22 23 24 25 26 27 27 27 28 28 29 29 29 29 29 29 29 30 31 32 32 31 31 30 29 28 28 28 27 26 25 24 23
Wind_Direction
144 156 168 161 143 153 165 162 156 146 133 135 144 154 162 166 166 163 165 167 163 158 155 156 158 162 171 178 177 179 185 187 189 191 194 196 197 197 196 195 198 201 201 201 200 203 207 210 212 213 213 215 217 218 219 219 220 222 221 221 221 221 222 222 225 228 230 232 233 233 236 241 246 251 256 262 265 267 270 274 279 282 285 289 294 299 304
146 154 171 171 161 160 167 167 162 147 135 139 147 156 163 168 170 166 165 168 166 158 151 150 152 159 169 173 171 173 175 176 179 182 185 190 194 195 194 194 197 199 200 199 199 203 207 209 211 212 213 215 217 218 219 218 219 220 221 221 220 220 220 221 224 228 231 231 231 231 235 241 246 252 257 263 266 267 269 273 278 281 284 288 292 296 301
153 157 174 179 177 168 170 172 165 147 138 142 151 160 165 169 172 171 169 166 162 157 151 149 154 162 167 165 165 169 169 170 173 176 180 186 190 191 191 192 195 198 199 200 200 203 206 208 209 211 212 215 217 218 219 218 219 220 220 220 219 219 219 221 224 228 230 230 228 229 235 241 248 253 258 263 265 266 267 271 275 280 283 287 291 293 297
154 160 174 180 178 170 171 175 169 157 144 144 153 163 167 171 175 175 171 163 156 156 153 152 158 161 160 156 156 162 166 169 173 176 180 184 186 187 188 191 194 197 198 199 200 202 205 206 208 210 212 215 216 218 219 218 218 220 220 220 219 219 219 221 225 227 228 228 226 228 235 242 248 253 258 262 264 265 267 269 273 278 283 287 289 291 294
152 161 174 180 178 169 171 176 174 167 150 145 154 164 169 172 177 178 174 165 156 157 157 158 160 158 155 155 155 158 163 168 171 173 175 180 184 186 188 191 193 195 197 198 200 202 204 206 209 211 213 215 216 217 217 216 217 218 220 220 219 219 220 221 224 225 225 225 225 228 234 240 247 253 258 259 261 264 266 267 270 276 281 284 286 288 291
149 159 173 180 179 171 171 175 175 170 152 145 153 163 170 174 179 180 177 169 160 161 162 163 164 162 158 157 160 164 165 165 167 169 171 174 178 183 186 188 191 194 195 197 199 202 204 207 209 212 215 216 217 218 216 215 215 217 219 220 219 220 221 223 224 224 223 222 224 228 233 239 246 252 257 258 260 263 264 266 270 274 278 281 283 285 287
152 160 172 179 180 174 169 171 171 166 150 142 150 161 169 174 178 180 181 176 167 166 166 166 170 173 168 165 168 169 166 163 167 172 176 176 176 178 182 185 188 191 193 195 198 201 204 206 209 212 215 218 219 220 219 218 217 219 221 222 223 224 224 225 224 222 221 221 225 230 234 239 246 252 256 258 259 261 263 266 270 273 277 281 282 283 286
158 166 174 178 180 176 170 171 172 165 149 139 147 159 168 174 175 177 183 183 177 173 173 173 176 182 184 181 177 173 167 165 168 172 179 183 182 181 181 184 188 190 192 195 199 202 204 206 209 212 215 218 220 221 222 222 223 225 227 228 229 230 230 229 226 223 222 223 226 231 235 240 247 252 256 258 260 262 264 266 271 274 278 280 281 283 285
163 169 175 176 173 171 173 176 178 176 169 160 158 164 171 176 177 178 183 187 186 183 181 182 184 190 196 197 192 185 178 173 170 170 176 182 186 187 187 188 190 192 195 197 199 202 205 207 210 213 215 218 220 221 221 222 223 226 229 230 230 231 231 232 230 226 225 227 229 233 237 242 248 253 256 259 260 262 264 267 271 275 277 278 280 283 284
170 169 169 166 161 162 170 178 182 185 188 189 183 181 185 186 186 188 190 191 192 191 192 194 195 197 203 206 202 196 188 181 176 175 178 182 186 189 190 191 193 196 199 201 202 204 206 209 212 215 218 220 222 223 221 220 219 220 224 228 229 229 229 230 231 230 230 231 233 235 239 243 248 252 256 258 259 259 261 264 268 272 275 277 279 282 285
179 168 163 161 159 157 162 176 183 185 190 195 194 193 197 200 200 202 205 204 200 199 199 200 199 201 205 208 207 204 197 189 185 185 189 191 193 193 193 193 194 198 201 204 206 207 209 211 214 216 218 221 223 224 224 223 222 222 223 226 228 228 228 227 228 232 234 235 236 238 241 244 247 250 252 254 255 255 257 261 265 269 272 275 278 282 284
185 174 167 165 164 161 160 173 180 180 184 192 195 197 203 209 210 212 218 218 211 209 207 206 205 197 190 192 194 192 190 189 189 193 197 199 201 202 201 199 198 200 203 205 207 209 210 211 213 214 217 220 223 224 226 227 227 226 227 228 228 228 227 226 229 233 236 237 240 241 243 244 246 247 249 250 251 251 254 258 263 267 270 273 277 280 283
187 179 174 171 171 171 173 174 175 178 185 191 197 202 205 207 207 210 219 221 217 216 213 210 205 179 169 173 172 171 177 182 188 194 198 200 202 205 206 206 205 205 206 207 209 210 211 211 213 214 217 221 223 225 227 230 231 231 232 232 230 228 227 227 230 234 237 240 242 243 243 244 245 246 246 247 248 250 252 256 260 264 267 270 274 277 279
187 184 180 177 174 172 174 175 176 181 187 192 197 200 198 197 198 203 215 222 218 213 209 206 196 160 157 164 164 164 171 179 185 192 196 196 199 201 203 206 209 210 212 213 213 214 213 213 213 215 218 222 224 225 228 232 233 234 234 233 230 227 227 228 232 235 238 241 243 244 244 244 245 246 247 247 248 249 251 255 259 262 264 267 272 275 276
187 189 186 179 174 170 171 174 179 184 186 188 189 183 169 173 183 191 205 212 210 204 200 195 182 157 151 156 163 168 175 182 187 194 198 199 201 203 203 205 209 212 215 217 219 220 219 217 216 218 222 225 226 227 229 232 234 234 234 233 230 229 231 233 236 238 239 240 242 243 242 243 245 247 248 248 249 250 252 255 259 261 264 266 270 273 275
189 193 191 183 177 175 175 174 178 186 187 179 177 176 155 149 156 151 161 184 198 202 195 159 146 159 159 160 168 176 186 196 202 205 209 214 219 220 218 216 215 214 215 218 221 223 223 220 218 219 224 228 230 231 234 237 238 236 233 231 229 231 235 237 239 239 239 239 240 240 240 241 243 246 248 250 250 252 254 257 258 261 263 266 269 272 274
193 197 196 190 184 182 181 176 175 186 189 169 166 177 168 141 144 141 146 159 169 173 149 92 109 143 163 177 189 199 207 213 214 214 218 224 227 228 228 226 222 217 213 212 215 219 220 219 216 217 223 231 236 235 234 236 236 230 226 227 229 232 236 238 240 240 239 240 240 239 238 239 242 245 248 251 252 255 257 258 259 260 262 265 267 269 271
193 199 199 196 193 189 186 183 180 188 191 172 155 167 181 180 175 172 166 164 152 133 117 99 98 116 147 179 198 209 215 217 214 210 212 214 215 218 219 217 214 213 210 210 214 216 217 218 218 219 225 233 237 234 228 224 221 217 216 220 227 233 236 238 240 242 241 241 240 238 238 240 243 245 248 251 254 257 260 260 259 259 261 265 266 266 267
186 198 202 201 201 197 191 190 189 187 188 180 165 169 187 195 183 187 195 188 179 170 163 159 156 179 198 211 218 219 220 220 216 209 206 204 204 207 209 208 208 210 214 218 221 221 221 222 223 225 227 230 232 228 222 217 215 215 214 215 221 232 237 238 240 242 241 241 241 242 242 244 245 245 247 251 254 259 262 261 258 257 260 264 264 263 264
174 187 195 201 206 204 200 200 199 191 193 200 197 195 209 213 192 200 217 210 204 206 202 201 233 253 245 238 227 218 221 224 217 208 206 207 209 210 210 208 207 210 214 216 218 221 221 219 218 219 219 219 219 219 217 215 216 218 217 218 225 234 242 243 243 243 243 242 244 245 247 248 247 245 246 250 254 257 259 257 255 256 259 261 260 260 261
156 164 175 191 202 205 207 211 214 213 214 218 213 209 218 227 219 218 224 220 215 218 218 218 244 250 239 231 222 212 217 222 218 211 206 205 207 208 207 200 193 190 191 193 202 212 212 207 204 203 204 206 209 211 212 214 216 218 222 230 237 242 247 249 248 248 247 244 244 246 250 250 247 244 244 249 252 252 251 249 250 254 257 258 257 257 258
149 154 163 178 192 201 208 215 220 221 216 214 215 215 220 229 227 224 229 230 225 224 224 216 207 206 201 206 216 219 201 173 194 204 202 197 195 195 195 193 187 182 179 184 195 205 206 202 197 194 194 197 201 204 208 212 216 219 225 234 240 243 246 248 250 254 252 245 242 245 249 248 242 238 240 245 248 246 243 243 246 251 254 254 255 256 257
149 157 163 173 183 191 201 209 212 211 206 204 208 207 208 219 222 218 227 237 235 233 235 231 229 247 299 153 187 197 187 159 138 158 173 177 181 186 192 197 198 197 195 192 195 202 207 207 204 201 199 199 201 204 208 211 216 221 226 232 236 238 242 245 250 259 258 246 241 245 250 247 239 232 233 238 241 241 241 242 245 248 251 252 254 256 256
150 159 169 178 181 185 196 204 203 202 203 205 208 207 208 218 222 216 218 232 232 232 240 240 237 248 267 277 252 201 196 193 179 158 147 145 154 167 179 186 189 188 185 186 190 196 202 206 207 209 210 210 211 214 217 219 223 226 230 235 238 239 242 245 249 255 257 248 245 248 254 253 241 229 227 233 239 243 246 247 248 250 251 253 254 256 256
147 154 169 183 183 183 195 205 201 199 204 208 214 218 221 228 229 222 223 234 243 245 254 257 247 246 256 270 273 243 203 194 187 172 155 143 138 141 151 161 165 165 167 172 177 182 186 192 198 203 208 212 215 218 222 225 229 232 235 239 241 242 243 246 249 251 251 248 247 247 252 254 243 230 226 233 244 250 254 255 254 253 253 255 256 257 258
137 143 154 173 181 183 191 198 197 199 205 210 216 222 226 230 233 231 234 243 252 257 261 263 256 248 249 260 268 253 183 163 178 178 168 163 160 159 161 164 162 161 163 167 172 177 180 184 188 193 199 204 209 214 218 223 227 231 235 239 241 242 244 245 248 250 250 249 248 244 243 246 242 233 229 235 245 255 259 260 258 257 256 256 257 258 259
132 134 138 154 173 181 185 186 185 188 198 211 219 223 225 228 232 235 241 248 252 255 257 259 258 250 248 255 262 262 267 304 303 247 216 204 195 190 187 181 175 173 175 178 182 185 187 188 190 193 197 201 205 210 214 219 224 229 233 237 239 242 244 245 247 250 251 251 249 243 237 237 237 234 233 237 245 254 259 261 262 262 261 259 258 259 261
136 136 135 138 147 160 169 176 181 188 199 213 223 226 228 231 232 230 232 240 245 247 250 254 255 249 247 251 255 257 261 274 285 281 265 243 222 213 209 205 199 197 199 200 202 204 205 205 206 207 208 210 213 216 220 223 228 232 236 240 243 246 248 250 251 253 254 254 253 247 240 236 236 237 239 243 249 255 259 262 263 264 265 265 263 264 265
156 154 152 150 148 150 158 169 180 193 203 213 222 227 230 234 236 232 230 232 234 237 243 246 243 238 239 241 244 247 250 253 256 258 255 244 235 229 228 227 227 229 228 227 226 227 228 228 229 229 230 230 230 231 233 235 237 239 241 244 246 248 251 253 254 255 256 257 256 254 251 247 245 246 248 251 255 258 260 262 264 265 267 268 269 270 271
181 177 174 172 171 168 169 177 187 195 204 210 214 216 218 222 228 231 233 234 235 237 239 237 230 230 236 240 238 237 237 236 236 236 232 227 226 229 232 234 237 240 241 242 243 243 244 246 248 249 249 249 249 248 249 248 249 249 249 249 250 251 252 253 254 255 256 257 257 258 258 257 257 258 259 261 263 265 266 268 269 270 272 273 273 274 275
196 193 189 185 182 176 173 182 193 200 208 213 212 211 211 212 214 218 223 229 231 233 233 232 230 231 236 239 238 234 232 231 228 225 222 220 221 229 236 238 239 242 245 248 250 251 253 255 257 258 258 258 258 258 258 258 257 257 256 256 256 256 256 257 258 258 258 259 259 260 261 261 263 264 265 267 268 269 271 272 272 273 274 274 274 275 275
197 200 198 196 195 189 182 181 184 186 194 206 212 212 212 211 210 211 214 216 216 218 222 227 230 232 234 236 236 235 233 232 231 229 229 230 232 237 242 244 243 244 246 247 251 254 257 259 260 260 260 260 261 261 261 261 261 261 260 261 260 260 260 260 260 260 260 260 260 261 261 261 262 263 264 265 266 268 269 270 271 272 272 273 274 274 275
194 195 199 203 204 199 190 185 184 183 183 189 198 204 208 209 208 209 211 211 210 211 214 218 223 226 228 230 232 234 235 235 235 234 234 235 237 240 243 245 246 246 246 246 249 252 254 256 257 259 260 262 265 266 267 267 267 267 266 266 265 264 263 262 262 261 261 261 261 261 261 262 263 263 264 266 267 268 269 270 270 271 272 274 275 276 277
213 207 204 206 209 209 205 201 200 201 202 201 197 195 198 200 202 205 208 210 210 209 211 213 216 220 224 227 229 232 235 237 238 237 236 236 237 239 240 242 244 246 246 247 248 249 251 253 255 258 262 265 267 269 270 270 270 270 269 269 268 267 267 266 265 264 264 264 264 265 265 266 266 267 268 269 269 270 271 272 272 273 274 275 276 277 279
229 225 221 220 220 223 225 225 223 218 215 216 215 212 205 201 200 204 208 210 209 209 209 208 211 216 221 226 228 231 233 235 235 235 233 233 233 235 236 237 239 241 243 245 248 250 253 255 256 258 260 261 263 264 265 266 267 268 268 269 269 269 268 268 268 268 268 268 268 269 269 269 269 270 270 271 272 272 273 274 274 275 276 277 278 278 279
239 235 233 232 233 235 236 238 238 235 229 226 225 225 223 219 215 213 214 216 217 216 213 211 211 213 217 221 223 223 225 227 228 227 228 229 229 231 232 233 235 236 239 242 246 250 253 254 255 255 256 256 257 259 261 263 264 266 268 269 269 270 270 270 271 271 271 271 271 272 272 272 273 273 273 274 274 275 275 276 277 278 279 279 280 280 281
247 243 239 238 238 239 240 241 243 242 240 236 234 233 233 232 230 228 226 226 226 225 224 223 222 220 221 223 222 218 219 225 226 223 223 226 230 231 232 233 234 236 238 241 244 248 251 252 254 255 257 260 262 263 264 266 267 268 270 271 271 272 272 272 273 273 273 273 273 274 274 275 275 276 277 277 278 278 279 279 280 281 281 282 282 282 283
249 248 245 243 241 240 240 239 238 237 237 238 239 239 239 238 237 236 235 235 235 234 233 233 232 230 230 231 231 226 224 227 230 227 224 226 230 232 233 235 236 239 242 244 246 248 250 252 255 258 260 262 264 265 266 268 269 270 271 272 272 273 274 274 274 274 275 275 276 277 277 278 278 279 279 280 280 281 282 282 282 283 283 283 282 281 281
246 247 247 245 243 241 240 239 238 237 237 239 240 241 240 240 240 241 240 240 240 240 239 239 238 237 236 236 237 236 233 232 234 233 231 230 232 234 236 236 237 239 242 245 247 251 253 255 257 260 261 262 264 265 266 267 268 270 270 271 272 272 273 273 274 275 276 277 278 278 279 279 280 281 282 282 283 284 285 285 286 286 286 285 284 281 279
246 247 247 247 245 243 242 241 241 242 243 243 243 243 243 243 243 243 242 241 241 241 241 240 239 238 237 236 236 237 237 236 237 237 237 236 236 237 239 239 239 241 244 247 249 252 255 256 258 260 262 263 265 267 268 269 271 271 272 272 273 274 274 275 276 277 277 278 278 279 279 280 280 281 282 283 283 284 284 284 285 285 285 285 284 282 280
244 247 247 247 247 245 243 242 241 242 245 247 247 247 246 245 245 244 244 244 243 242 240 239 237 237 237 236 235 235 235 236 237 237 238 239 240 241 243 244 244 245 247 250 251 253 256 258 261 263 265 267 269 271 272 274 276 277 278 279 279 280 280 281 281 281 281 282 282 282 281 281 281 282 282 282 282 282 282 282 282 281 281 282 282 282 280
236 242 246 247 247 246 244 243 240 239 241 245 247 248 247 245 244 244 243 243 242 240 238 237 236 234 234 234 233 233 233 234 235 236 237 239 240 242 244 246 247 248 250 252 254 257 260 264 268 272 275 277 279 281 283 284 284 285 286 286 286 286 286 286 285 285 285 285 285 284 284 284 283 283 283 283 282 282 282 281 281 281 281 281 281 281 281
230 236 240 244 246 245 244 243 241 239 240 242 245 247 247 246 244 244 242 241 238 234 232 231 231 231 231 231 230 230 231 232 235 236 238 240 242 242 243 245 248 251 254 258 262 267 271 275 278 282 285 287 288 289 290 290 290 290 290 290 290 290 290 290 289 289 289 288 287 286 286 285 285 284 284 283 283 282 282 282 281 282 282 281 280 280 279
232 235 238 240 242 243 243 242 241 240 240 241 243 245 246 245 244 243 243 241 236 229 225 226 228 229 229 230 230 231 232 234 236 238 239 241 243 244 246 247 250 255 260 266 272 276 280 283 285 288 290 292 292 292 293 293 293 293 293 293 293 294 294 293 293 292 292 292 291 290 289 288 288 287 286 286 284 283 283 283 282 282 281 280 278 275 271
233 236 239 240 241 241 240 240 241 241 241 241 242 244 245 245 244 243 242 242 238 232 226 226 228 231 232 234 236 236 236 235 234 233 234 235 239 243 247 252 257 262 267 271 275 278 282 285 288 290 292 293 294 295 296 296 296 296 295 295 295 296 296 295 295 294 294 293 293 292 291 291 290 290 289 287 286 285 285 285 284 284 283 282 280 277 273
234 236 239 241 241 240 239 238 239 239 240 241 242 242 242 242 242 240 239 239 239 236 232 231 232 235 236 236 236 235 233 231 229 229 231 235 240 244 250 255 261 265 269 273 277 281 284 287 290 292 293 294 295 296 297 298 297 296 296 295 295 295 295 295 295 295 294 293 293 292 291 290 289 288 286 285 284 284 283 283 284 285 285 285 285 284 283
235 236 239 240 240 239 238 237 237 238 238 239 239 239 239 238 238 237 236 236 236 237 236 235 234 233 232 230 229 228 229 230 232 234 237 242 246 249 253 257 261 265 270 274 278 282 286 289 291 293 295 297 298 299 299 299 298 298 297 296 296 295 294 294 294 293 293 292 292 291 290 288 286 284 281 279 279 280 280 281 282 283 284 285 286 286 285
241 240 241 241 240 238 237 236 236 236 236 236 236 235 236 235 235 234 234 234 234 234 234 233 232 229 227 226 226 227 229 232 236 239 243 247 250 252 254 257 260 265 270 275 280 285 289 292 295 298 300 302 303 304 303 303 302 301 300 299 298 296 295 294 293 292 291 290 289 287 286 284 283 282 280 278 278 278 279 280 281 282 283 285 286 286 285
247 248 247 245 242 239 236 235 234 234 234 234 233 233 233 233 232 232 232 232 232 231 230 228 227 226 226 226 227 228 229 232 236 239 242 246 248 251 254 258 263 269 274 279 284 289 293 297 301 304 306 308 309 309 308 307 306 304 303 301 300 298 297 296 294 292 291 289 287 284 282 281 279 279 279 279 278 279 280 282 284 286 288 291 291 288 286
249 251 251 249 245 241 237 235 235 235 234 233 232 230 230 230 231 231 231 231 231 230 229 227 226 225 225 225 226 226 228 231 235 238 241 245 249 252 256 261 265 271 278 283 289 293 297 301 304 307 309 311 312 313 312 311 310 308 306 304 302 300 298 297 295 293 292 290 287 284 281 279 277 276 276 276 276 277 280 282 284 287 291 295 295 292 290
247 248 248 247 245 242 239 237 236 236 236 235 233 230 228 228 229 230 231 231 231 232 231 228 226 225 223 223 224 225 227 232 237 240 244 247 251 255 259 264 269 275 280 286 291 296 299 302 304 307 310 312 314 315 316 315 314 313 310 307 304 302 301 299 298 296 294 292 290 286 283 280 278 276 276 275 275 275 277 279 280 283 287 290 290 289 290
243 246 245 244 243 241 238 237 236 236 237 237 236 233 230 227 227 229 231 231 231 232 231 229 227 224 222 222 223 226 230 234 239 244 249 253 257 261 265 270 274 279 283 287 291 295 298 301 304 307 310 312 315 316 317 318 318 316 314 311 307 304 302 301 300 298 296 294 292 289 285 281 278 277 276 275 275 274 274 275 277 280 283 283 282 282 284
Height
5556 5558 5561 5564 5566 5569 5573 5576 5578 5581 5585 5588 5591 5595 5599 5603 5607 5610 5613 5616 5620 5623 5627 5630 5634 5637 5640 5644 5648 5652 5655 5659 5664 5669 5674 5678 5682 5686 5690 5694 5698 5701 5705 5708 5711 5714 5717 5719 5721 5724 5726 5728 5730 5733 5736 5739 5742 5744 5747 5749 5751 5753 5755 5757 5758 5759 5760 5761 5762 5764 5765 5766 5767 5768 5768 5769 5769 5770 5770 5769 5768 5769 5768 5768 5767 5766 5765
5558 5561 5565 5567 5569 5572 5575 5577 5580 5583 5587 5590 5594 5597 5601 5604 5608 5612 5615 5618 5621 5625 5629 5632 5636 5639 5641 5644 5648 5651 5655 5659 5663 5668 5672 5676 5680 5684 5688 5692 5696 5699 5703 5706 5709 5712 5714 5716 5719 5721 5724 5726 5728 5731 5734 5736 5739 5742 5744 5746 5748 5750 5752 5754 5755 5756 5757 5759 5760 5762 5763 5764 5765 5766 5766 5766 5767 5768 5768 5766 5766 5766 5766 5765 5764 5763 5763
5561 5564 5567 5569 5571 5574 5576 5579 5582 5586 5589 5593 5596 5599 5603 5606 5610 5613 5617 5620 5624 5627 5631 5634 5637 5639 5642 5644 5648 5651 5655 5659 5663 5667 5671 5674 5678 5682 5686 5690 5693 5697 5700 5703 5707 5709 5711 5713 5716 5718 5721 5723 5725 5728 5731 5734 5737 5739 5741 5743 5745 5747 5749 5750 5752 5753 5755 5756 5758 5759 5760 5761 5762 5763 5764 5764 5764 5765 5765 5764 5763 5763 5763 5762 5762 5761 5760
5564 5566 5569 5571 5574 5576 5578 5581 5585 5588 5591 5594 5598 5602 5605 5608 5611 5615 5618 5622 5626 5629 5633 5636 5639 5641 5643 5645 5648 5652 5655 5659 5663 5667 5670 5673 5677 5681 5684 5688 5691 5694 5698 5701 5704 5706 5708 5710 5712 5715 5717 5720 5722 5725 5728 5731 5733 5735 5738 5740 5742 5744 5746 5747 5749 5750 5752 5753 5755 5756 5758 5759 5760 5760 5761 5761 5761 5762 5762 5762 5761 5760 5760 5760 5759 5759 5758
5566 5568 5571 5574 5576 5579 5581 5584 5587 5590 5593 5597 5601 5604 5607 5610 5613 5616 5620 5624 5627 5631 5634 5637 5640 5642 5644 5647 5650 5653 5656 5660 5664 5667 5670 5673 5676 5679 5682 5686 5689 5692 5695 5698 5700 5703 5705 5707 5709 5712 5714 5717 5719 5722 5725 5727 5730 5732 5734 5737 5739 5741 5743 5744 5746 5747 5749 5750 5752 5753 5755 5756 5757 5758 5758 5758 5758 5758 5759 5759 5759 5759 5758 5758 5757 5756 5756
5569 5571 5573 5576 5579 5581 5584 5587 5589 5592 5595 5599 5603 5606 5609 5612 5614 5617 5621 5625 5628 5632 5635 5638 5642 5644 5646 5648 5651 5655 5658 5661 5664 5668 5671 5673 5676 5678 5681 5684 5687 5690 5693 5696 5698 5700 5702 5705 5707 5710 5712 5714 5716 5718 5721 5724 5726 5729 5732 5735 5737 5739 5740 5742 5743 5744 5746 5747 5749 5750 5752 5754 5755 5755 5755 5755 5755 5756 5756 5756 5756 5756 5756 5756 5755 5755 5754
5572 5574 5576 5579 5582 5584 5587 5590 5592 5595 5598 5601 5605 5608 5611 5614 5616 5619 5622 5626 5629 5633 5636 5639 5643 5645 5648 5650 5653 5656 5659 5662 5665 5668 5671 5673 5676 5678 5680 5682 5685 5688 5691 5693 5695 5697 5700 5702 5705 5707 5709 5711 5713 5716 5719 5723 5726 5729 5732 5734 5736 5737 5738 5740 5741 5742 5743 5744 5746 5748 5750 5751 5752 5752 5753 5753 5753 5753 5753 5753 5753 5754 5754 5754 5754 5753 5752
5575 5577 5579 5581 5584 5587 5590 5593 5595 5598 5601 5603 5606 5610 5613 5615 5618 5620 5623 5626 5630 5633 5637 5640 5643 5646 5649 5651 5654 5657 5660 5662 5664 5667 5670 5672 5675 5677 5679 5682 5684 5686 5689 5691 5693 5695 5697 5700 5702 5704 5706 5708 5711 5715 5719 5723 5727 5730 5732 5734 5735 5737 5738 5738 5739 5740 5741 5742 5744 5745 5747 5749 5750 5750 5750 5750 5751 5751 5751 5751 5751 5751 5752 5752 5751 5751 5750
5578 5580 5581 5583 5586 5589 5593 5595 5598 5601 5603 5606 5609 5612 5614 5616 5619 5622 5624 5626 5630 5634 5637 5641 5644 5646 5649 5651 5654 5657 5660 5662 5663 5666 5668 5671 5673 5676 5678 5681 5683 5685 5687 5689 5692 5694 5696 5698 5699 5701 5703 5706 5710 5714 5718 5721 5725 5727 5729 5731 5733 5734 5735 5737 5738 5738 5739 5740 5742 5744 5745 5746 5747 5748 5748 5748 5748 5748 5749 5749 5748 5749 5749 5749 5749 5748 5748
5581 5582 5584 5586 5588 5591 5595 5599 5601 5604 5606 5608 5611 5613 5615 5618 5620 5623 5625 5628 5630 5634 5637 5640 5643 5645 5648 5651 5653 5656 5660 5662 5663 5665 5668 5670 5673 5675 5677 5679 5681 5683 5685 5687 5689 5692 5694 5696 5698 5700 5703 5706 5710 5713 5716 5718 5720 5722 5725 5727 5729 5730 5732 5733 5736 5737 5738 5739 5740 5741 5743 5744 5744 5745 5745 5745 5745 5746 5746 5746 5746 5746 5746 5746 5746 5746 5745
5583 5585 5586 5588 5590 5594 5598 5602 5603 5605 5607 5609 5612 5614 5616 5619 5621 5624 5627 5629 5631 5634 5637 5639 5642 5645 5647 5649 5652 5655 5658 5661 5663 5665 5668 5670 5673 5675 5677 5679 5680 5682 5684 5686 5688 5690 5693 5695 5697 5700 5703 5706 5709 5712 5714 5716 5718 5719 5720 5723 5725 5727 5728 5730 5733 5735 5736 5737 5738 5739 5740 5740 5740 5741 5741 5741 5742 5742 5743 5743 5743 5743 5743 5743 5743 5743 5743
5585 5587 5589 5590 5592 5595 5599 5602 5603 5606 5608 5610 5613 5615 5617 5619 5622 5624 5626 5628 5630 5633 5636 5638 5642 5644 5644 5646 5650 5652 5655 5659 5662 5664 5666 5669 5671 5673 5676 5678 5680 5681 5683 5685 5687 5689 5691 5693 5695 5698 5701 5703 5706 5709 5711 5714 5716 5717 5718 5720 5722 5725 5727 5728 5731 5733 5734 5735 5735 5736 5736 5736 5736 5737 5737 5738 5738 5739 5739 5740 5740 5740 5740 5741 5741 5741 5740
5587 5589 5591 5593 5594 5597 5600 5602 5604 5607 5610 5612 5614 5617 5618 5620 5622 5624 5625 5627 5630 5632 5635 5638 5641 5643 5642 5643 5647 5650 5653 5657 5661 5663 5666 5668 5670 5672 5674 5676 5678 5680 5681 5683 5685 5687 5689 5691 5694 5696 5699 5701 5703 5706 5708 5711 5713 5715 5717 5719 5721 5723 5724 5725 5728 5730 5731 5732 5732 5731 5732 5732 5733 5734 5734 5735 5735 5735 5736 5737 5737 5737 5737 5737 5738 5738 5738
5589 5591 5593 5595 5597 5599 5601 5603 5606 5609 5612 5614 5617 5618 5619 5620 5622 5624 5625 5628 5630 5633 5635 5638 5641 5641 5641 5643 5647 5650 5653 5657 5660 5663 5665 5667 5669 5670 5672 5674 5676 5678 5680 5682 5684 5686 5688 5690 5692 5695 5697 5698 5700 5703 5705 5708 5710 5712 5714 5717 5719 5720 5721 5722 5724 5727 5728 5728 5728 5728 5728 5729 5730 5731 5732 5732 5732 5733 5733 5734 5733 5733 5734 5734 5734 5735 5734
5590 5593 5595 5597 5599 5601 5603 5605 5608 5611 5614 5616 5618 5619 5620 5621 5623 5625 5626 5628 5631 5634 5637 5639 5640 5641 5642 5644 5647 5650 5654 5657 5660 5663 5665 5667 5669 5670 5671 5673 5675 5676 5678 5680 5682 5684 5686 5688 5691 5693 5695 5696 5698 5700 5702 5704 5707 5709 5711 5713 5715 5717 5718 5720 5722 5723 5724 5724 5724 5724 5725 5727 5728 5729 5729 5730 5730 5730 5730 5731 5730 5730 5730 5731 5731 5731 5731
5592 5594 5596 5599 5601 5603 5605 5608 5610 5613 5616 5617 5619 5620 5621 5623 5625 5626 5627 5629 5631 5634 5637 5639 5640 5641 5643 5645 5648 5651 5654 5657 5660 5663 5665 5666 5668 5669 5671 5672 5673 5675 5676 5679 5681 5683 5684 5687 5689 5691 5693 5694 5696 5698 5700 5702 5704 5707 5709 5711 5712 5714 5715 5717 5718 5719 5719 5719 5719 5720 5722 5723 5725 5725 5726 5727 5727 5727 5728 5728 5727 5727 5727 5728 5728 5727 5727
5593 5595 5598 5601 5603 5605 5607 5610 5612 5615 5617 5618 5619 5621 5623 5625 5626 5627 5628 5630 5632 5635 5637 5638 5640 5642 5644 5646 5649 5651 5653 5656 5659 5661 5663 5665 5666 5667 5669 5670 5671 5673 5675 5676 5678 5680 5682 5684 5687 5689 5691 5692 5694 5696 5698 5699 5701 5704 5707 5709 5710 5711 5712 5713 5714 5714 5714 5714 5715 5716 5718 5719 5721 5721 5722 5723 5724 5724 5725 5725 5725 5725 5725 5725 5725 5724 5723
5595 5597 5599 5602 5605 5607 5609 5611 5613 5616 5617 5619 5620 5622 5624 5626 5627 5629 5630 5632 5633 5635 5637 5638 5640 5642 5644 5647 5649 5650 5652 5654 5656 5658 5661 5662 5663 5664 5666 5667 5669 5671 5672 5674 5675 5677 5679 5681 5683 5686 5688 5690 5691 5693 5695 5696 5699 5701 5704 5707 5708 5708 5708 5708 5709 5709 5709 5710 5710 5712 5713 5715 5717 5718 5719 5720 5721 5721 5721 5722 5722 5722 5722 5722 5722 5721 5721
5597 5599 5601 5603 5606 5608 5611 5613 5614 5616 5618 5620 5621 5623 5624 5626 5628 5630 5631 5633 5634 5636 5637 5639 5640 5642 5644 5646 5648 5650 5651 5652 5653 5655 5657 5659 5661 5662 5663 5665 5667 5669 5670 5672 5673 5674 5676 5678 5680 5682 5684 5686 5688 5690 5693 5695 5697 5699 5701 5703 5704 5704 5704 5704 5704 5703 5703 5704 5706 5708 5710 5712 5713 5715 5716 5717 5718 5718 5718 5719 5719 5719 5720 5719 5719 5718 5718
5598 5600 5602 5604 5607 5609 5612 5613 5615 5617 5619 5621 5622 5624 5625 5627 5629 5630 5632 5634 5635 5636 5638 5639 5641 5642 5643 5645 5647 5649 5650 5650 5650 5652 5654 5656 5659 5660 5662 5663 5665 5666 5668 5670 5671 5672 5674 5676 5678 5680 5682 5684 5686 5688 5691 5693 5695 5697 5698 5699 5699 5700 5701 5702 5701 5701 5701 5702 5703 5705 5707 5709 5710 5712 5713 5714 5714 5715 5715 5715 5716 5716 5716 5716 5716 5715 5715
5600 5601 5603 5606 5608 5610 5612 5613 5615 5617 5620 5621 5623 5625 5626 5627 5629 5631 5632 5634 5636 5637 5638 5640 5641 5641 5642 5644 5646 5648 5649 5649 5649 5651 5652 5654 5656 5658 5660 5662 5663 5665 5666 5668 5669 5671 5673 5675 5677 5679 5681 5683 5685 5687 5689 5691 5693 5694 5695 5695 5696 5697 5698 5699 5699 5700 5700 5701 5701 5702 5704 5706 5707 5708 5709 5710 5711 5711 5712 5712 5712 5713 5713 5712 5712 5712 5712
5601 5602 5604 5606 5609 5611 5613 5614 5615 5617 5620 5621 5623 5625 5625 5626 5628 5630 5632 5634 5635 5637 5638 5640 5640 5640 5641 5643 5645 5647 5649 5649 5649 5650 5651 5652 5654 5656 5659 5661 5663 5664 5666 5667 5669 5671 5673 5674 5676 5678 5680 5682 5683 5685 5687 5689 5690 5691 5692 5692 5693 5694 5695 5695 5696 5697 5697 5697 5698 5699 5700 5701 5703 5704 5705 5706 5707 5707 5707 5708 5708 5709 5709 5709 5708 5708 5708
5603 5603 5605 5607 5609 5611 5613 5614 5615 5617 5619 5621 5623 5625 5625 5625 5627 5631 5633 5633 5634 5636 5638 5639 5640 5641 5642 5644 5645 5647 5649 5650 5650 5650 5650 5651 5653 5655 5657 5660 5661 5663 5665 5667 5668 5670 5672 5674 5676 5677 5679 5681 5682 5684 5685 5687 5688 5688 5689 5690 5691 5691 5692 5693 5693 5694 5694 5694 5694 5695 5696 5697 5698 5700 5701 5702 5703 5704 5704 5704 5704 5704 5705 5705 5705 5704 5704
5604 5605 5606 5607 5609 5611 5613 5614 5615 5618 5619 5621 5623 5624 5625 5625 5627 5631 5632 5632 5633 5635 5637 5639 5641 5642 5643 5645 5646 5647 5649 5650 5651 5651 5651 5651 5653 5655 5657 5659 5661 5662 5664 5666 5667 5669 5671 5672 5674 5676 5677 5679 5680 5682 5683 5684 5685 5685 5686 5687 5688 5689 5690 5690 5691 5691 5692 5692 5692 5693 5693 5694 5695 5696 5698 5699 5700 5701 5701 5701 5701 5701 5701 5701 5701 5700 5699
5605 5606 5607 5608 5609 5611 5612 5613 5615 5617 5619 5621 5622 5623 5624 5625 5627 5630 5631 5632 5632 5635 5637 5639 5641 5642 5644 5645 5646 5648 5648 5650 5651 5651 5651 5652 5654 5655 5657 5659 5660 5662 5663 5665 5666 5668 5669 5671 5672 5674 5675 5677 5678 5679 5680 5682 5682 5683 5684 5685 5685 5686 5687 5687 5687 5688 5689 5689 5689 5690 5690 5691 5692 5694 5695 5696 5697 5697 5698 5697 5697 5697 5697 5696 5696 5696 5695
5606 5607 5608 5609 5610 5611 5612 5613 5615 5617 5619 5620 5621 5622 5623 5626 5627 5629 5631 5632 5633 5635 5637 5639 5640 5642 5643 5644 5646 5647 5648 5649 5650 5651 5652 5653 5654 5656 5657 5658 5660 5661 5663 5664 5666 5667 5668 5670 5671 5672 5674 5675 5676 5677 5679 5679 5680 5681 5681 5682 5683 5683 5684 5684 5684 5685 5685 5685 5686 5686 5687 5688 5689 5690 5691 5692 5692 5693 5693 5692 5692 5692 5692 5692 5692 5691 5690
5607 5608 5609 5610 5610 5611 5612 5614 5615 5617 5618 5619 5620 5621 5623 5625 5626 5628 5630 5631 5632 5634 5636 5638 5640 5641 5642 5643 5645 5646 5648 5649 5649 5650 5651 5652 5654 5655 5656 5657 5659 5660 5661 5663 5665 5666 5667 5669 5670 5671 5672 5674 5675 5676 5677 5677 5678 5679 5679 5679 5680 5680 5681 5681 5681 5682 5682 5682 5683 5683 5684 5685 5686 5686 5687 5687 5688 5688 5688 5688 5687 5687 5687 5688 5687 5687 5686
5608 5609 5609 5610 5611 5612 5613 5614 5615 5617 5618 5618 5619 5620 5622 5623 5625 5627 5629 5630 5631 5633 5635 5637 5639 5640 5641 5642 5643 5645 5646 5648 5649 5649 5650 5651 5652 5654 5655 5656 5658 5659 5660 5662 5663 5664 5665 5667 5668 5669 5670 5671 5672 5673 5674 5675 5676 5676 5677 5677 5677 5677 5678 5678 5678 5679 5679 5679 5680 5680 5681 5682 5682 5683 5683 5683 5683 5684 5684 5684 5683 5683 5683 5683 5683 5682 5681
5609 5610 5610 5611 5612 5613 5613 5614 5615 5616 5617 5618 5618 5619 5621 5622 5623 5626 5628 5629 5631 5632 5634 5636 5637 5638 5639 5641 5642 5643 5644 5646 5648 5649 5649 5650 5652 5653 5654 5655 5657 5658 5659 5660 5661 5662 5663 5664 5666 5667 5668 5669 5670 5671 5671 5672 5673 5673 5674 5674 5674 5675 5675 5675 5675 5676 5676 5677 5677 5677 5678 5678 5679 5679 5679 5679 5680 5680 5679 5679 5679 5679 5678 5678 5677 5676 5676
5609 5610 5611 5612 5613 5613 5614 5614 5615 5616 5617 5617 5618 5618 5619 5621 5622 5624 5626 5628 5629 5631 5633 5635 5636 5637 5638 5639 5641 5642 5643 5644 5646 5647 5648 5649 5651 5652 5653 5654 5655 5656 5657 5658 5659 5660 5661 5662 5663 5664 5665 5666 5667 5668 5668 5669 5670 5670 5671 5671 5671 5672 5672 5672 5672 5673 5673 5673 5673 5673 5674 5674 5674 5674 5674 5674 5674 5674 5674 5674 5673 5673 5672 5672 5671 5670 5669
5609 5610 5611 5612 5613 5614 5614 5615 5615 5616 5617 5617 5618 5618 5619 5620 5621 5623 5624 5626 5628 5630 5631 5633 5634 5636 5637 5638 5639 5640 5641 5642 5644 5645 5647 5648 5649 5650 5651 5652 5654 5655 5656 5657 5657 5658 5659 5660 5661 5662 5662 5663 5663 5664 5665 5665 5666 5666 5667 5667 5668 5668 5668 5668 5669 5669 5669 5669 5669 5670 5670 5670 5670 5670 5669 5669 5669 5669 5668 5668 5668 5667 5667 5666 5665 5664 5664
5609 5610 5611 5612 5613 5613 5614 5614 5615 5616 5616 5617 5618 5618 5619 5620 5621 5622 5623 5625 5626 5628 5629 5630 5632 5634 5635 5636 5637 5638 5639 5640 5641 5643 5644 5646 5647 5648 5649 5651 5652 5653 5654 5655 5656 5656 5657 5658 5658 5659 5659 5660 5660 5661 5662 5662 5663 5663 5663 5664 5664 5664 5665 5665 5665 5665 5665 5666 5666 5666 5666 5666 5666 5666 5665 5665 5665 5664 5664 5663 5663 5662 5661 5661 5660 5659 5659
5610 5610 5611 5612 5612 5613 5614 5614 5615 5615 5616 5617 5617 5618 5618 5619 5620 5621 5622 5623 5625 5626 5627 5628 5630 5631 5632 5633 5635 5636 5637 5638 5639 5640 5641 5643 5644 5645 5647 5648 5649 5650 5651 5652 5653 5654 5655 5655 5656 5656 5656 5657 5658 5658 5659 5659 5659 5660 5660 5660 5661 5661 5661 5661 5661 5661 5661 5661 5661 5661 5661 5661 5661 5661 5661 5660 5660 5659 5659 5658 5658 5657 5656 5656 5655 5654 5653
5610 5610 5611 5612 5612 5613 5614 5614 5615 5615 5616 5616 5617 5617 5618 5619 5620 5621 5621 5622 5624 5625 5626 5627 5628 5629 5630 5631 5632 5633 5634 5635 5636 5637 5639 5640 5641 5642 5644 5645 5646 5647 5648 5649 5650 5651 5652 5653 5653 5654 5654 5655 5655 5655 5656 5656 5656 5656 5656 5657 5657 5657 5657 5657 5657 5657 5657 5657 5657 5657 5657 5656 5656 5656 5656 5655 5655 5655 5654 5653 5653 5652 5652 5651 5650 5649 5649
5609 5609 5610 5611 5611 5612 5613 5613 5614 5615 5615 5616 5616 5617 5618 5618 5619 5620 5620 5621 5622 5624 5625 5626 5627 5628 5629 5630 5631 5632 5632 5633 5634 5635 5636 5638 5639 5640 5641 5642 5643 5644 5645 5646 5647 5648 5649 5650 5651 5651 5652 5652 5653 5653 5653 5653 5653 5653 5653 5654 5654 5654 5654 5653 5653 5653 5653 5653 5653 5653 5652 5652 5652 5651 5651 5651 5651 5650 5649 5649 5648 5648 5647 5646 5645 5644 5643
5608 5608 5609 5609 5610 5611 5611 5612 5612 5613 5614 5615 5616 5616 5617 5617 5618 5619 5620 5621 5621 5622 5623 5625 5626 5626 5627 5628 5629 5630 5631 5631 5632 5633 5634 5636 5637 5638 5639 5640 5641 5642 5643 5644 5645 5645 5646 5647 5648 5649 5649 5650 5650 5650 5650 5650 5650 5651 5651 5651 5651 5650 5650 5650 5650 5650 5649 5649 5649 5649 5648 5648 5648 5647 5647 5647 5646 5646 5645 5644 5643 5642 5642 5641 5640 5639 5638
5606 5606 5607 5607 5608 5609 5610 5610 5611 5612 5612 5613 5614 5615 5615 5616 5617 5618 5619 5619 5620 5621 5622 5623 5624 5625 5626 5627 5628 5629 5629 5630 5631 5632 5633 5634 5635 5636 5637 5638 5639 5640 5641 5642 5642 5643 5644 5645 5645 5646 5646 5647 5647 5647 5647 5647 5647 5647 5647 5647 5647 5647 5647 5647 5646 5646 5646 5645 5645 5645 5644 5644 5644 5643 5643 5642 5642 5641 5640 5639 5638 5637 5637 5636 5635 5634 5633
5604 5605 5605 5606 5606 5607 5608 5609 5610 5611 5611 5612 5612 5613 5614 5615 5615 5616 5617 5618 5618 5619 5620 5621 5622 5623 5624 5625 5626 5627 5628 5628 5629 5630 5632 5632 5633 5634 5635 5636 5637 5638 5639 5639 5640 5641 5642 5642 5642 5643 5643 5643 5644 5644 5644 5644 5644 5644 5644 5644 5644 5643 5643 5643 5642 5642 5641 5641 5641 5641 5640 5640 5639 5639 5638 5638 5637 5636 5635 5634 5634 5633 5632 5631 5630 5629 5628
5603 5603 5604 5604 5605 5605 5606 5607 5608 5609 5610 5610 5611 5611 5612 5613 5614 5615 5615 5616 5617 5617 5618 5619 5620 5621 5622 5623 5624 5625 5626 5627 5627 5628 5629 5630 5631 5632 5633 5634 5635 5636 5636 5637 5638 5638 5639 5639 5640 5640 5640 5640 5641 5641 5641 5641 5641 5641 5641 5641 5640 5640 5639 5639 5638 5638 5638 5637 5637 5637 5636 5636 5635 5634 5634 5633 5632 5631 5631 5630 5629 5628 5627 5626 5625 5625 5624
5601 5601 5602 5602 5603 5604 5604 5605 5606 5607 5608 5609 5610 5610 5611 5612 5612 5613 5614 5614 5615 5616 5616 5617 5618 5619 5620 5621 5622 5622 5623 5624 5625 5626 5627 5628 5629 5630 5631 5632 5633 5633 5634 5634 5635 5635 5636 5636 5636 5637 5637 5637 5637 5637 5637 5637 5637 5637 5637 5637 5637 5636 5636 5635 5635 5634 5634 5633 5633 5632 5632 5631 5631 5630 5629 5629 5628 5627 5626 5625 5624 5624 5623 5622 5621 5620 5619
5599 5599 5600 5601 5601 5602 5602 5603 5604 5605 5606 5607 5608 5609 5610 5610 5611 5612 5612 5613 5614 5614 5615 5615 5616 5616 5617 5618 5619 5620 5621 5622 5623 5623 5624 5625 5626 5627 5628 5629 5630 5630 5631 5631 5632 5632 5632 5633 5633 5633 5633 5634 5634 5634 5634 5634 5634 5634 5634 5633 5633 5632 5632 5631 5631 5630 5630 5629 5628 5628 5627 5627 5626 5626 5625 5624 5623 5622 5621 5621 5620 5619 5618 5617 5617 5616 5615
5597 5597 5598 5599 5600 5600 5601 5601 5602 5603 5604 5605 5606 5607 5607 5608 5609 5610 5610 5611 5612 5612 5613 5613 5614 5614 5615 5616 5617 5618 5618 5619 5620 5621 5622 5623 5624 5625 5625 5626 5627 5627 5628 5628 5629 5629 5629 5629 5630 5630 5630 5630 5630 5630 5630 5630 5630 5630 5629 5629 5628 5628 5627 5626 5626 5625 5625 5625 5624 5623 5623 5622 5622 5621 5620 5619 5618 5617 5616 5615 5615 5614 5613 5612 5612 5611 5610
5595 5595 5596 5597 5598 5598 5599 5599 5600 5601 5602 5602 5603 5604 5605 5606 5607 5607 5608 5609 5610 5611 5611 5612 5612 5613 5613 5614 5615 5616 5616 5617 5618 5619 5620 5620 5621 5622 5623 5623 5624 5624 5625 5625 5625 5626 5626 5626 5626 5626 5626 5626 5626 5626 5626 5626 5625 5625 5624 5624 5623 5622 5622 5621 5621 5620 5620 5619 5619 5618 5618 5617 5616 5616 5615 5614 5613 5612 5611 5610 5610 5609 5608 5608 5607 5607 5606
5592 5593 5594 5595 5596 5596 5597 5597 5598 5599 5599 5600 5601 5602 5603 5603 5604 5605 5606 5607 5608 5609 5609 5610 5610 5611 5612 5612 5613 5614 5615 5615 5616 5617 5617 5618 5619 5619 5620 5621 5621 5622 5622 5622 5622 5623 5623 5622 5623 5623 5622 5622 5622 5622 5621 5621 5621 5620 5620 5619 5619 5618 5617 5616 5615 5615 5615 5614 5613 5613 5612 5612 5611 5611 5610 5609 5608 5607 5606 5606 5605 5605 5604 5604 5603 5603 5603
5590 5591 5592 5593 5594 5594 5595 5596 5596 5597 5598 5598 5599 5600 5600 5601 5602 5603 5604 5604 5605 5606 5607 5608 5608 5609 5610 5610 5611 5612 5612 5613 5614 5614 5615 5616 5616 5617 5617 5618 5618 5619 5619 5619 5619 5620 5620 5619 5619 5619 5619 5619 5618 5618 5618 5617 5617 5616 5616 5615 5614 5614 5613 5612 5611 5610 5610 5609 5609 5608 5607 5607 5607 5606 5606 5605 5604 5604 5603 5602 5601 5601 5601 5600 5600 5599 5599
5588 5589 5590 5591 5591 5592 5593 5593 5594 5595 5596 5596 5597 5597 5598 5599 5600 5600 5601 5602 5603 5604 5605 5606 5606 5607 5608 5608 5609 5610 5610 5611 5612 5612 5613 5614 5614 5615 5615 5616 5616 5616 5616 5617 5617 5617 5617 5617 5617 5616 5616 5616 5615 5615 5615 5614 5613 5613 5612 5612 5611 5610 5610 5608 5607 5606 5605 5605 5604 5604 5603 5603 5603 5603 5602 5602 5601 5601 5600 5599 5598 5598 5598 5597 5596 5596 5595
5587 5587 5588 5588 5589 5590 5590 5591 5592 5593 5593 5594 5595 5595 5596 5597 5597 5598 5599 5600 5600 5601 5602 5603 5604 5605 5606 5606 5607 5608 5608 5609 5610 5610 5611 5612 5612 5613 5613 5613 5614 5614 5614 5614 5614 5614 5614 5614 5614 5614 5613 5613 5613 5612 5612 5611 5610 5609 5609 5608 5607 5607 5606 5605 5604 5603 5602 5601 5600 5600 5599 5599 5599 5599 5599 5599 5598 5597 5597 5596 5595 5595 5595 5594 5593 5593 5592
5585 5585 5586 5586 5587 5588 5588 5589 5590 5590 5591 5592 5593 5593 5594 5595 5595 5596 5597 5597 5598 5599 5600 5601 5602 5603 5603 5604 5605 5606 5606 5607 5608 5608 5609 5609 5610 5610 5611 5611 5611 5612 5612 5612 5612 5612 5612 5612 5611 5611 5610 5610 5609 5609 5608 5607 5607 5606 5605 5604 5603 5603 5602 5601 5601 5599 5598 5597 5597 5596 5595 5595 5594 5594 5594 5595 5595 5594 5593 5593 5591 5591 5591 5591 5590 5589 5588
5583 5584 5584 5585 5585 5586 5586 5587 5587 5588 5589 5589 5590 5591 5592 5592 5593 5594 5594 5595 5596 5597 5598 5598 5599 5600 5601 5602 5603 5604 5604 5605 5606 5606 5607 5607 5608 5608 5608 5609 5609 5609 5609 5609 5609 5609 5609 5609 5609 5608 5607 5607 5606 5605 5605 5604 5603 5602 5601 5600 5599 5599 5598 5597 5596 5595 5594 5593 5593 5592 5591 5591 5590 5590 5589 5590 5590 5590 5589 5588 5587 5586 5586 5586 5586 5586 5585
5581 5582 5582 5583 5583 5583 5584 5585 5585 5586 5587 5587 5588 5589 5590 5590 5591 5592 5592 5593 5594 5595 5595 5596 5597 5598 5599 5600 5601 5601 5602 5603 5603 5604 5605 5605 5606 5606 5606 5607 5607 5607 5607 5607 5607 5607 5607 5606 5606 5605 5605 5604 5603 5602 5601 5600 5599 5598 5597 5596 5595 5594 5593 5593 5592 5591 5590 5589 5588 5588 5587 5587 5586 5585 5585 5585 5585 5585 5585 5584 5583 5582 5581 5581 5581 5581 5581
5579 5579 5580 5580 5581 5581 5582 5582 5583 5584 5584 5585 5586 5586 5587 5588 5589 5589 5590 5591 5592 5593 5593 5594 5595 5596 5597 5598 5599 5599 5600 5601 5601 5602 5603 5603 5603 5604 5604 5604 5604 5605 5605 5605 5604 5604 5604 5604 5603 5603 5602 5601 5601 5600 5598 5597 5596 5595 5594 5593 5591 5590 5589 5588 5587 5587 5586 5585 5584 5583 5583 5582 5581 5581 5581 5581 5581 5581 5581 5580 5579 5578 5578 5578 5577 5577 5577
5577 5577 5578 5578 5578 5579 5579 5580 5581 5581 5582 5583 5583 5584 5585 5585 5586 5587 5587 5588 5589 5590 5591 5592 5593 5594 5595 5596 5596 5597 5598 5599 5599 5600 5600 5601 5601 5601 5602 5602 5602 5602 5602 5602 5602 5602 5601 5601 5600 5600 5599 5598 5598 5597 5595 5594 5593 5592 5591 5589 5588 5587 5585 5584 5583 5582 5582 5581 5580 5579 5578 5578 5577 5576 5576 5576 5576 5576 5576 5576 5576 5575 5575 5574 5574 5574 5573